User: anonymous   Login
Location: Arrow Head Lodge
(44.7836°N, 106.9681°W)
Time: 19:53:49
(UTC+00:00)
Language:

Hubble Space Telescope - Orbit

View from above orbital plane
View from above orbital plane
View from above satellite
View from above satellite

Ground track
Ground track

The orbit data is extracted from the following two-line orbital elements,

1 20580U 90037B   21338.81674597  .00000978  00000-0  47948-4 0  9998
2 20580  28.4714  17.6750 0002930  97.7714  65.2617 15.09865506536767
Epoch (UTC): 04 December 2021 19:36:06
Eccentricity: 0.0002930
inclination: 28.4714°
perigee height: 534 km
apogee height: 538 km
right ascension of ascending node: 17.6750°
argument of perigee: 97.7714°
revolutions per day: 15.09865506
mean anomaly at epoch: 65.2617°
orbit number at epoch: 53676

The dashed part of the orbit path shows where the satellite is in the earth's shadow,  

DLR